Probability
0 0 0 0 0 0 0 0 0 1 3 5 6 6 6 6 6 5 6 6 5 4 3 3 3 3 2 2 3 3 2 1 0 0 0 0 0 0 0 0 1 2 3
0 0 0 0 0 0 0 0 0 1 3 5 6 6 6 6 5 5 5 5 5 4 4 3 3 2 1 1 3 3 2 1 1 0 0 1 1 1 1 1 1 2 2
0 0 0 0 0 0 0 1 1 2 3 5 6 6 6 5 4 4 4 4 4 5 4 3 2 1 0 1 2 3 3 2 2 1 1 2 2 2 2 2 3 3 3
0 0 0 0 0 1 1 2 3 3 4 5 6 6 6 4 3 3 3 3 3 4 4 3 2 1 0 1 2 2 3 3 3 2 2 3 3 3 3 3 3 3 3
1 2 2 1 1 2 3 3 3 3 4 6 6 6 6 4 3 3 3 3 4 4 4 3 3 1 0 1 1 1 1 2 3 3 3 4 4 4 4 4 3 3 3
3 4 3 3 3 3 3 3 3 4 4 5 6 6 5 4 3 3 3 3 4 4 4 4 3 2 1 1 0 0 0 2 4 4 4 5 5 6 6 5 4 4 4
4 4 4 3 4 4 3 2 3 4 4 3 4 5 4 3 3 2 2 2 2 2 3 3 3 2 1 0 0 0 0 2 3 4 4 5 6 7 7 7 6 5 5
4 4 3 3 3 3 3 3 3 3 2 1 1 2 3 2 1 1 1 1 0 0 1 1 2 2 1 0 0 0 0 2 3 4 4 5 7 8 8 8 8 6 5
4 4 3 3 2 2 3 3 3 3 2 1 1 1 1 1 0 0 0 0 0 0 0 1 1 1 1 0 0 1 1 2 4 5 6 7 8 8 9 9 8 6 6
4 5 4 3 1 1 2 3 3 3 3 3 3 2 1 0 0 0 0 0 0 0 0 1 1 1 1 1 1 2 3 4 5 7 8 9 9 9 9 9 9 8 8
4 5 6 4 2 1 2 3 3 3 4 5 5 3 2 1 1 1 0 0 0 0 1 2 3 3 3 3 3 4 6 7 8 9 10 10 10 11 10 10 10 10 10
4 5 6 5 3 2 3 3 3 4 5 5 5 4 3 3 2 2 1 0 0 1 2 4 6 6 6 6 6 7 9 10 10 11 11 11 11 12 12 11 10 10 10
4 4 4 3 3 3 3 3 4 5 6 7 6 5 4 3 3 3 2 1 1 2 3 5 6 7 7 8 8 8 10 10 10 10 10 11 11 12 12 12 10 10 10
6 6 5 3 3 3 3 4 5 6 7 8 8 7 6 6 6 6 5 4 4 4 5 6 6 7 8 9 8 8 9 9 9 9 9 10 11 12 12 12 12 11 9
7 8 8 7 6 5 5 5 5 6 8 9 9 9 10 11 11 11 9 9 8 8 8 8 8 8 9 9 9 8 8 8 8 8 9 10 10 11 10 11 12 10 8
8 9 10 11 10 8 8 7 7 8 10 11 11 12 14 16 16 16 14 13 12 12 11 10 9 9 9 8 7 8 9 9 8 8 10 11 10 10 8 7 7 6 5
8 9 11 12 11 9 9 11 11 11 13 13 14 15 18 19 19 18 17 15 14 13 12 11 10 10 9 7 5 6 9 11 11 11 12 12 11 11 10 8 6 4 3
8 9 10 10 10 9 10 12 13 14 15 17 18 20 22 22 21 20 19 16 14 13 13 12 11 10 9 7 5 5 8 12 13 13 14 14 13 12 13 13 13 9 5
6 7 9 9 9 11 13 14 16 17 18 19 21 23 24 24 22 20 19 17 15 13 13 13 12 11 10 8 6 4 7 11 13 13 14 14 13 10 9 13 15 13 10
3 5 8 9 9 13 17 19 20 20 20 20 22 24 25 23 20 18 18 17 15 14 13 12 12 11 11 9 6 3 6 10 13 13 12 11 8 5 5 8 11 12 11
4 7 10 10 11 15 20 22 22 21 21 21 22 24 23 21 18 16 15 14 14 13 12 11 11 11 10 8 5 2 4 8 11 12 11 9 5 2 2 5 7 7 7
9 10 12 12 12 15 19 21 21 20 22 23 23 23 22 20 17 14 12 10 10 10 10 8 9 9 9 6 4 2 2 4 8 11 12 9 4 1 0 2 4 3 2
11 11 12 12 12 14 16 18 18 20 23 25 24 22 20 18 16 13 10 8 8 9 8 6 6 7 7 6 4 3 2 2 5 9 9 6 3 1 1 1 1 1 1
11 11 11 12 14 15 16 16 18 21 23 24 22 20 17 16 15 13 10 8 9 9 8 5 4 4 5 4 4 3 3 3 3 5 5 4 3 2 2 2 2 2 2
10 11 11 12 14 16 16 18 21 23 23 21 19 17 16 16 15 13 9 7 8 8 6 4 3 3 3 2 2 2 3 3 2 3 5 5 5 5 4 3 3 3 3
10 11 11 12 14 15 16 18 22 23 22 20 17 16 16 16 16 14 9 4 4 4 3 2 2 3 2 1 0 1 1 2 1 2 5 7 7 7 6 4 3 3 3
Wind_Speed
5 4 4 4 3 3 3 3 3 2 2 2 1 1 1 0 0 0 0 1 1 2 2 2 1 2 2 2 2 2 2 1 1 1 1 1 1 1 1 2 2 3 3
4 4 4 4 4 4 4 3 3 3 3 2 2 1 1 0 0 0 1 1 1 2 2 2 2 2 2 2 2 2 2 1 1 1 1 1 2 1 1 1 2 2 2
8 6 6 5 5 5 5 5 4 4 3 3 2 2 2 2 1 1 1 1 1 1 2 2 2 2 2 2 2 2 3 2 1 1 2 2 1 1 1 1 1 1 2
7 7 7 6 6 6 5 4 4 3 3 3 3 3 2 1 2 1 1 1 1 1 2 2 2 2 2 2 2 2 2 3 1 1 1 1 2 1 1 1 1 1 2
9 9 9 8 6 5 5 4 4 3 3 3 4 3 2 2 0 0 1 1 1 0 1 2 2 2 2 2 2 2 2 2 2 2 1 1 1 1 1 2 2 1 1
9 8 7 6 5 5 5 5 4 3 3 4 4 4 3 2 1 1 0 1 1 1 1 1 2 2 2 2 2 2 3 2 2 2 2 2 2 2 2 2 2 2 2
9 9 8 8 7 6 6 5 5 4 4 4 4 4 4 3 3 2 2 1 0 1 1 1 1 2 2 2 2 2 2 2 2 2 2 2 2 2 2 2 2 2 2
9 10 10 9 8 8 7 6 6 5 4 4 4 3 3 3 2 2 2 2 2 2 1 1 1 2 2 2 2 2 2 2 2 3 2 2 2 2 2 2 2 1 2
10 10 9 8 8 8 8 8 7 5 5 5 4 3 3 3 2 2 2 1 1 1 1 1 1 1 1 2 2 2 2 2 2 2 2 2 2 2 2 2 2 2 2
9 9 9 9 8 8 7 6 7 6 6 5 4 4 3 3 3 2 2 2 1 1 1 1 1 1 1 1 2 2 2 2 2 2 2 2 2 1 1 2 2 2 3
9 9 8 8 7 6 6 6 6 5 5 5 4 4 3 3 3 3 3 2 2 2 2 1 1 1 1 1 1 2 2 2 2 2 2 2 2 1 1 1 1 2 2
7 7 7 6 6 6 6 6 6 6 5 5 4 4 4 3 3 3 3 3 2 2 2 2 2 2 1 1 1 2 2 2 2 2 2 2 1 2 2 1 2 2 2
5 5 6 6 7 7 6 6 6 6 6 5 5 4 4 4 4 4 3 3 3 2 2 2 2 2 2 1 2 2 2 2 2 2 2 3 2 2 2 2 2 2 1
5 5 5 6 6 6 6 6 6 6 6 5 5 5 5 5 4 4 3 3 3 2 2 2 2 2 2 2 2 2 2 3 3 3 3 3 3 3 3 2 2 2 1
5 6 6 5 5 6 6 6 5 5 6 6 6 6 5 4 3 3 3 2 2 3 2 2 2 2 3 3 3 3 3 3 3 3 3 3 3 3 3 2 2 2 2
5 6 6 6 6 6 6 6 6 6 6 6 6 5 4 4 4 4 3 3 3 3 2 3 3 3 3 3 4 3 3 3 3 3 3 3 3 3 3 4 3 4 4
4 5 5 6 6 6 7 7 6 5 6 5 5 4 4 4 4 4 4 4 4 3 3 3 3 4 4 4 4 5 4 3 3 3 3 3 3 3 2 3 3 4 4
3 4 4 5 5 5 5 5 5 5 6 5 4 4 5 5 4 4 4 4 3 3 3 3 4 4 4 4 4 4 4 3 4 4 4 3 3 3 2 2 2 3 3
4 4 4 4 4 4 5 6 6 5 5 5 5 5 5 5 4 4 4 3 3 3 3 3 4 4 4 4 5 4 3 3 4 4 4 4 4 4 3 3 3 3 3
1 2 2 2 2 3 4 6 6 6 6 6 6 5 5 5 5 4 3 2 2 3 3 3 3 4 4 4 5 5 3 3 3 3 3 4 4 4 4 3 3 3 3
1 0 1 2 3 3 5 5 5 6 6 4 4 4 4 4 4 3 2 2 2 2 3 3 3 4 4 5 5 5 3 4 4 3 3 3 4 4 4 4 4 5 3
1 1 2 1 2 4 5 5 5 4 3 3 3 4 3 3 3 3 3 3 3 2 2 3 3 3 4 5 6 6 7 6 4 4 3 3 4 5 5 4 4 4 3
0 1 2 1 0 2 4 4 4 3 3 3 3 2 2 2 3 4 4 3 3 3 2 2 3 4 3 3 6 7 8 8 5 4 5 5 5 4 3 4 4 3 2
0 1 2 1 0 1 2 3 2 4 5 4 4 3 3 3 2 2 3 3 3 3 3 3 4 4 3 3 2 3 3 5 4 3 3 3 4 3 3 3 3 3 3
1 0 1 1 1 1 1 1 2 3 3 4 3 3 3 3 3 3 3 4 4 4 4 4 4 4 4 5 5 4 3 3 3 2 1 1 1 2 2 2 2 2 3
0 1 1 1 1 0 0 1 2 3 3 2 2 2 2 2 2 2 2 3 4 6 8 8 6 6 6 5 5 6 5 4 3 3 2 3 3 4 4 3 3 3 3
Wind_Direction
203 179 178 170 150 150 153 161 154 145 123 115 126 125 142 157 142 220 204 181 168 158 153 153 150 142 145 153 143 130 122 100 123 101 39 352 313 233 231 228 230 238 240
188 183 179 173 169 174 177 177 173 164 160 152 147 148 141 143 173 335 317 229 187 172 165 164 166 154 146 142 142 134 129 133 140 136 104 359 344 334 267 226 227 240 244
193 190 188 190 182 186 186 188 186 174 170 153 120 90 61 34 21 348 287 264 204 183 176 178 174 164 158 171 174 159 157 162 170 159 152 155 239 302 319 274 246 241 241
195 192 191 192 191 194 186 179 174 169 164 149 143 147 155 187 241 251 267 294 189 182 181 170 161 162 165 177 194 169 161 156 179 187 189 183 170 177 304 316 300 271 260
194 194 195 195 192 182 175 171 160 160 156 148 154 153 162 188 220 15 351 340 350 251 191 164 165 179 183 189 183 158 162 169 182 187 177 171 160 172 195 276 304 312 282
191 190 190 181 179 171 168 165 160 169 163 157 160 165 170 168 145 151 266 307 341 334 291 189 185 189 191 192 189 180 176 185 191 195 191 182 184 191 189 226 268 292 298
186 184 182 182 181 176 175 172 171 181 176 167 170 178 176 171 182 206 209 214 232 272 276 239 202 198 200 195 183 181 199 197 195 206 215 215 219 196 187 199 235 266 290
186 188 190 188 188 185 180 177 182 190 183 180 180 177 169 170 184 204 199 200 213 226 230 211 209 209 202 198 177 186 217 209 214 226 220 224 230 210 203 197 196 252 285
188 189 188 186 188 189 188 187 185 191 191 187 179 174 170 171 178 187 188 204 218 218 201 210 214 205 187 185 171 183 218 214 221 227 218 222 238 221 220 210 199 199 251
184 182 184 186 188 191 190 185 185 190 191 185 185 185 183 182 180 174 190 196 208 212 183 189 205 228 219 188 182 200 211 200 227 216 215 230 242 232 221 216 218 210 218
185 185 186 186 184 182 180 182 183 182 185 186 184 183 185 182 177 182 199 200 199 188 191 202 200 218 243 228 202 221 205 205 232 232 221 242 238 235 232 219 211 213 209
183 180 179 176 177 182 183 185 187 189 193 187 183 189 187 180 184 197 204 196 197 199 197 197 197 217 228 223 219 236 228 212 231 247 240 257 245 246 243 223 223 223 215
170 167 169 178 185 188 187 188 190 191 186 181 182 185 193 192 198 203 204 197 195 200 201 190 197 214 222 220 226 228 234 222 223 233 238 248 237 249 243 228 225 227 216
168 168 177 188 191 189 187 189 192 186 178 177 184 191 200 200 199 197 195 196 192 195 207 207 210 218 222 225 228 229 238 241 238 237 239 240 227 235 239 232 228 219 206
169 176 185 192 194 191 189 187 190 186 178 178 188 199 197 191 186 185 188 186 191 203 210 211 226 232 228 236 230 228 232 233 243 250 250 247 236 233 231 233 222 208 205
186 186 187 189 196 194 191 188 188 186 176 183 197 196 186 184 188 191 189 189 200 210 211 220 224 234 246 251 232 225 239 239 242 255 263 258 247 242 234 231 220 206 205
194 193 194 196 198 197 188 188 189 177 178 188 194 189 188 193 197 196 190 202 213 214 221 230 227 234 248 247 242 235 234 242 244 249 258 266 265 246 240 236 225 226 228
195 204 202 197 195 185 180 172 161 165 174 182 189 191 191 198 198 195 201 208 209 212 223 230 232 239 255 247 241 236 235 247 248 245 245 251 264 252 231 234 238 242 242
212 207 203 195 182 176 170 156 159 164 171 184 193 197 193 191 192 202 209 208 205 214 224 231 234 242 259 248 242 230 236 247 255 252 246 242 250 248 221 213 237 260 265
241 216 188 154 168 181 157 155 166 171 189 198 198 194 192 193 195 202 205 204 203 218 224 243 245 246 256 250 240 226 232 245 256 257 250 239 235 235 209 206 214 242 258
356 74 145 153 182 171 155 165 177 197 206 195 184 179 186 195 194 190 195 196 205 213 226 242 254 251 252 257 246 229 229 237 245 250 250 242 226 234 228 216 217 232 237
60 119 130 160 173 163 158 170 196 208 189 175 181 178 180 193 187 184 192 187 189 209 234 248 263 262 255 248 245 235 233 234 234 242 246 245 232 234 234 225 232 232 216
109 148 143 136 173 164 165 181 203 174 159 160 178 190 187 206 201 190 192 193 192 203 226 248 264 274 271 257 245 238 235 234 234 246 245 241 236 231 230 230 219 192 181
331 123 119 124 223 201 186 193 180 161 161 171 177 188 196 206 210 209 197 201 205 213 222 239 256 267 268 257 250 243 235 231 234 247 250 244 237 228 226 214 203 195 189
330 120 146 171 234 244 197 191 171 161 173 181 181 185 198 209 213 223 217 213 215 212 219 229 234 245 258 251 232 228 232 226 225 210 224 225 223 231 230 227 218 206 196
344 102 142 163 220 321 307 267 197 168 173 195 205 196 191 211 215 221 250 245 239 236 231 237 235 240 238 250 239 237 243 240 210 185 216 227 228 232 233 231 230 221 216